Location: Boiro
(42.6475°N, 8.8834°W)
Time: 02:19:50
(UTC+01:00)

S-56A Canister/Altair - Pass Details

Date: 07 December 2021
Orbit: 633 x 2499 km, 38.9° (Epoch: 18 January)

Event Time Altitude Azimuth Distance (km) Brightness Sun altitude
Rises 21:48:57 0° 201° (SSW) 6,066 12.3 -40.9°
Reaches altitude 10° 21:54:15 10° 189° (S) 4,888 11.6 -41.9°
Enters shadow 21:58:05 17° 176° (S) 4,132 11.1 -42.6°
